Wind_Speed
4 4 4 3 3 3 2 3 4 3 3 3 3 3 4 5 5 5 5 5 4 4 4 5 6 6 6 6 6 6 6 6 5 5 5 6 6 6 6 6 6 5 5
3 2 1 2 2 2 2 2 2 2 2 2 3 4 4 5 5 5 5 5 5 5 5 6 7 7 7 6 7 7 7 7 7 7 6 6 6 7 7 7 7 6 6
2 1 1 1 1 2 2 2 2 1 2 3 3 4 4 5 5 5 5 5 6 6 5 5 6 6 7 7 7 7 7 7 8 8 8 8 7 7 7 7 8 7 8
2 2 1 1 0 1 1 2 2 2 2 3 4 4 5 6 6 6 6 6 6 6 6 6 6 7 7 8 8 8 8 8 8 9 9 9 9 9 9 9 9 9 9
2 1 1 1 1 1 1 1 2 3 3 4 4 4 4 5 6 6 6 6 7 7 7 7 7 7 8 8 8 8 9 9 9 9 10 10 11 11 11 11 11 11 11
3 2 1 1 1 2 2 2 2 2 3 4 4 4 4 5 6 6 7 7 7 7 7 8 8 8 9 9 9 9 9 9 10 10 11 11 11 11 12 13 13 13 13
5 4 2 2 2 2 2 2 2 2 3 4 4 4 4 5 5 6 7 8 9 9 9 9 10 9 9 10 11 11 10 10 11 10 11 12 12 13 13 14 14 14 14
6 5 4 3 3 2 2 2 3 2 3 3 4 4 4 5 6 7 7 8 9 10 10 10 10 11 11 11 11 11 11 11 11 12 12 12 13 13 14 14 14 14 14
6 6 5 5 4 3 3 3 2 2 2 2 3 4 5 6 6 7 8 9 9 9 10 10 10 10 11 11 11 12 12 12 12 12 13 13 13 14 14 14 15 16 16
7 6 5 5 5 4 4 4 3 3 3 3 3 4 4 5 6 6 7 8 9 9 10 11 11 12 12 12 12 13 14 14 14 14 14 14 14 14 15 15 15 16 16
7 6 6 5 5 5 4 4 4 4 4 4 5 5 5 6 6 7 7 8 9 10 10 10 11 13 13 13 13 15 15 16 16 17 16 16 16 15 16 16 15 15 16
6 6 5 5 5 5 4 4 4 5 5 5 6 6 7 7 7 7 8 8 9 10 11 11 12 13 14 14 15 15 15 16 17 18 17 17 17 17 18 17 16 16 16
6 5 5 5 5 5 5 5 5 6 6 6 7 7 7 7 8 9 9 10 10 11 11 12 12 12 13 14 15 15 16 15 16 16 16 17 17 18 17 17 17 17 17
6 5 5 5 6 6 6 6 6 6 7 8 8 8 8 8 9 9 10 11 11 11 11 12 13 14 14 14 15 16 16 17 17 17 17 17 17 18 18 17 18 18 18
6 6 6 6 7 7 7 7 7 7 8 9 9 9 9 9 10 10 10 11 12 12 12 13 13 14 14 15 15 16 16 16 17 17 17 18 18 19 19 19 18 18 19
7 7 7 8 8 9 9 9 8 9 9 10 10 11 11 10 11 11 12 12 12 13 13 13 13 14 15 15 16 16 16 16 18 18 18 18 18 19 19 19 20 19 19
8 8 8 9 9 10 10 10 10 10 10 11 11 12 12 12 12 13 13 14 14 14 14 14 15 16 16 17 17 18 18 18 18 17 17 18 19 20 20 21 21 20 20
10 10 10 11 11 11 11 11 11 11 12 12 12 13 13 13 13 14 14 15 15 15 15 15 16 17 17 18 19 19 19 19 18 18 18 19 20 20 21 20 21 21 21
11 12 12 12 12 13 13 13 13 13 13 13 14 14 14 15 14 14 15 15 16 16 16 16 16 17 17 18 18 18 19 19 18 19 19 19 20 21 21 21 21 21 21
13 13 14 14 14 14 14 15 15 15 15 15 15 15 16 16 16 15 16 16 17 17 17 17 18 18 19 19 20 19 19 19 20 20 20 20 21 21 21 22 22 22 22
14 15 15 15 15 15 15 15 16 17 16 16 16 16 16 17 18 18 18 18 18 19 19 20 20 20 20 21 21 21 21 21 21 21 21 21 21 21 22 22 23 23 23
17 17 16 16 16 17 17 17 17 18 18 18 18 18 19 19 19 20 20 20 20 21 21 21 22 22 22 21 21 21 21 21 21 22 22 22 22 23 23 23 23 24 24
18 18 17 17 17 18 19 19 19 19 19 19 19 19 20 20 21 21 21 21 21 22 22 22 23 23 23 22 22 22 23 23 23 23 23 23 23 23 24 25 25 25 25
20 20 20 19 19 20 20 20 20 21 21 21 21 21 22 22 21 22 22 22 22 22 23 23 23 23 23 23 24 24 24 24 24 24 24 24 23 24 25 25 26 27 27
22 22 22 22 22 22 21 21 22 22 22 22 22 22 23 23 22 22 23 23 23 23 24 24 23 24 24 25 25 25 24 25 25 25 25 25 25 26 26 27 27 28 28
24 23 24 23 23 23 23 23 23 23 23 22 23 23 23 23 23 23 23 23 23 23 24 25 24 24 25 25 25 24 23 24 25 24 25 25 25 26 26 27 28 28 28
Wind_Direction
117 138 139 137 152 162 180 185 174 183 204 228 235 253 251 245 239 238 240 247 251 248 245 242 240 242 243 245 244 245 247 247 255 257 253 251 249 247 243 242 247 253 256
113 131 137 99 123 149 178 196 200 217 228 252 267 266 261 250 245 249 250 250 252 249 244 246 244 244 245 247 250 248 245 247 251 256 258 257 251 253 244 244 249 255 259
79 106 119 126 152 176 208 219 226 222 245 255 265 273 270 257 252 253 255 251 250 249 245 247 243 245 246 249 252 248 246 249 251 256 255 256 255 259 248 252 254 254 257
83 101 82 60 120 218 214 227 245 239 254 259 267 273 275 260 256 254 255 249 246 248 249 251 248 248 248 249 252 250 249 249 252 255 256 256 256 257 253 259 255 258 262
42 51 62 76 342 299 278 277 275 259 260 262 269 273 275 261 254 255 254 250 249 253 254 253 254 253 251 252 254 252 254 254 255 256 258 258 257 257 258 260 260 264 264
30 23 356 316 301 314 307 296 285 278 273 265 266 270 274 258 253 254 252 251 256 261 263 260 258 255 255 255 255 257 254 257 259 258 258 261 262 261 259 261 263 267 265
28 14 1 341 328 338 326 316 302 292 291 279 271 275 274 260 257 253 258 260 263 266 267 265 261 256 259 260 260 258 256 258 263 266 263 264 265 265 261 263 265 267 266
33 35 20 9 3 360 340 316 309 295 303 287 279 279 277 271 266 260 269 272 270 271 271 270 264 260 262 264 263 258 258 260 265 268 269 268 268 264 261 265 266 267 265
19 21 24 24 22 17 11 353 342 317 314 303 292 285 279 274 272 267 270 274 274 275 274 270 272 270 268 267 263 259 261 260 263 266 270 271 272 270 267 268 270 269 268
19 14 18 14 10 6 1 358 356 338 329 321 315 303 291 284 281 281 279 277 276 277 276 275 273 270 271 271 266 263 263 262 265 268 271 274 272 272 272 272 272 271 268
22 18 18 14 9 4 353 345 343 335 324 316 313 311 306 293 288 288 288 286 281 280 279 279 277 273 269 270 269 265 263 264 267 267 270 273 272 274 274 274 272 272 270
24 23 18 18 12 1 352 342 334 325 317 317 316 310 304 296 291 289 287 289 289 286 282 281 281 276 271 269 270 269 263 264 265 267 269 273 273 273 274 272 271 272 271
16 14 10 8 4 356 347 338 333 328 321 320 320 319 311 301 294 292 287 287 289 290 289 285 283 279 274 273 270 266 262 264 267 271 272 273 274 272 270 272 270 270 270
5 2 359 355 352 346 340 332 327 326 323 319 320 322 316 312 303 294 292 290 291 292 293 292 288 286 282 279 277 272 268 269 274 277 275 274 274 274 272 273 271 269 269
350 350 342 336 336 333 329 325 320 318 319 319 320 321 318 311 307 298 293 293 293 292 292 292 291 289 287 283 283 281 280 280 278 280 276 273 274 274 275 275 273 272 273
340 339 331 328 326 325 323 318 313 310 309 312 316 315 311 306 304 302 296 294 295 294 293 292 291 289 285 284 280 281 282 284 283 281 282 279 277 276 275 276 276 275 275
330 329 325 319 317 316 315 312 310 310 310 309 309 311 312 306 304 302 300 297 295 293 291 292 291 288 287 286 282 281 283 283 284 282 282 281 278 275 275 274 276 275 275
319 321 319 316 312 310 311 309 308 306 307 308 308 308 309 309 307 305 303 302 301 296 293 292 292 290 288 289 288 286 284 283 284 283 284 284 281 277 276 276 277 277 275
312 314 315 313 310 308 308 308 307 306 305 305 305 306 306 307 307 307 304 302 301 299 297 297 296 294 291 289 289 287 285 285 285 284 284 284 282 277 277 278 279 279 278
306 306 309 310 308 305 304 305 303 301 302 303 303 304 305 304 304 305 305 304 301 299 298 297 298 297 295 292 290 289 285 285 284 284 284 283 281 278 277 278 280 279 279
305 304 305 304 302 301 301 301 301 300 300 300 301 301 301 302 302 303 304 304 302 300 299 298 298 298 297 297 294 290 288 286 285 285 284 282 279 278 277 278 279 280 282
303 304 302 303 302 302 301 298 297 298 299 298 299 300 300 300 301 302 301 301 300 300 299 299 298 296 296 297 295 293 291 289 287 285 283 281 281 280 280 280 281 282 283
299 301 299 299 298 299 300 299 298 298 298 297 297 298 300 300 299 300 301 300 300 300 299 298 298 298 297 298 295 293 292 290 287 285 284 283 283 283 283 283 284 284 284
295 295 294 295 295 295 297 298 298 298 299 299 299 298 298 299 298 297 298 298 300 301 299 298 297 298 298 297 299 296 291 288 287 286 285 285 284 285 285 285 286 287 287
291 291 291 291 292 292 293 295 295 297 298 299 299 298 298 296 296 295 296 297 297 298 299 300 298 297 297 297 297 296 293 291 288 286 285 285 285 286 286 287 287 287 287
290 290 290 290 290 291 291 292 294 295 296 297 297 297 297 295 293 294 294 295 296 296 297 299 299 298 298 298 296 295 294 292 289 288 288 287 288 288 287 287 287 288 289
Height
5881 5881 5881 5882 5882 5883 5883 5884 5884 5884 5885 5885 5886 5886 5887 5887 5887 5888 5888 5889 5890 5890 5891 5891 5891 5892 5892 5893 5893 5894 5894 5895 5895 5895 5895 5895 5896 5896 5896 5897 5897 5898 5898
5882 5881 5881 5882 5882 5883 5883 5883 5884 5884 5884 5884 5885 5885 5885 5886 5887 5887 5887 5888 5889 5889 5890 5890 5890 5890 5891 5891 5892 5892 5893 5893 5894 5894 5894 5894 5895 5895 5895 5896 5896 5896 5897
5882 5882 5882 5882 5883 5883 5883 5883 5883 5883 5884 5884 5884 5884 5884 5885 5885 5886 5886 5887 5887 5888 5888 5888 5889 5889 5890 5890 5890 5891 5891 5892 5892 5893 5893 5893 5893 5894 5894 5894 5895 5895 5895
5882 5882 5882 5882 5883 5883 5883 5883 5883 5883 5883 5883 5883 5883 5883 5883 5884 5884 5885 5885 5886 5886 5887 5887 5887 5888 5888 5888 5889 5889 5890 5890 5890 5891 5891 5891 5892 5892 5892 5893 5893 5893 5893
5883 5882 5883 5883 5882 5882 5882 5883 5883 5882 5882 5882 5882 5882 5882 5882 5883 5883 5883 5884 5884 5885 5885 5885 5886 5886 5886 5887 5887 5887 5888 5888 5888 5889 5889 5889 5890 5890 5890 5890 5891 5891 5891
5883 5883 5883 5882 5882 5882 5882 5882 5882 5882 5881 5881 5881 5881 5881 5881 5881 5882 5882 5883 5883 5883 5883 5884 5884 5884 5884 5885 5885 5885 5886 5886 5887 5887 5887 5887 5887 5887 5888 5888 5888 5888 5888
5883 5882 5882 5882 5882 5882 5881 5881 5881 5881 5881 5880 5881 5881 5881 5880 5880 5881 5881 5881 5881 5881 5881 5881 5882 5882 5882 5883 5883 5883 5884 5884 5884 5884 5884 5885 5885 5884 5885 5885 5885 5885 5885
5883 5882 5882 5881 5881 5881 5881 5881 5880 5880 5880 5880 5880 5880 5880 5880 5879 5879 5880 5880 5879 5880 5879 5879 5879 5880 5880 5880 5881 5881 5881 5881 5882 5882 5882 5882 5882 5882 5881 5881 5882 5882 5882
5883 5882 5882 5881 5881 5881 5880 5880 5880 5879 5879 5879 5879 5879 5879 5879 5878 5878 5878 5878 5878 5878 5877 5877 5877 5877 5877 5878 5878 5878 5878 5878 5879 5879 5879 5878 5878 5878 5878 5878 5878 5878 5878
5883 5882 5882 5881 5881 5881 5880 5880 5879 5879 5879 5879 5878 5878 5878 5877 5877 5877 5877 5876 5876 5876 5875 5875 5875 5875 5875 5875 5875 5875 5875 5875 5875 5875 5875 5875 5875 5875 5875 5875 5875 5874 5874
5883 5883 5882 5882 5881 5880 5880 5880 5879 5879 5878 5878 5877 5877 5876 5876 5875 5875 5875 5874 5874 5873 5873 5872 5872 5872 5872 5872 5872 5872 5872 5872 5872 5872 5872 5872 5872 5871 5871 5871 5870 5870 5870
5884 5883 5882 5882 5881 5880 5880 5880 5879 5878 5878 5877 5876 5875 5875 5874 5874 5873 5873 5872 5872 5871 5871 5870 5870 5869 5869 5868 5868 5868 5867 5867 5868 5868 5868 5868 5868 5868 5867 5867 5866 5867 5866
5884 5883 5883 5882 5881 5880 5880 5879 5878 5878 5877 5876 5875 5874 5873 5872 5872 5871 5871 5870 5870 5869 5868 5868 5867 5866 5866 5865 5865 5865 5864 5864 5864 5864 5864 5864 5864 5864 5863 5863 5862 5862 5862
5884 5883 5883 5882 5881 5880 5879 5878 5878 5877 5876 5875 5874 5873 5872 5871 5870 5869 5869 5868 5868 5867 5866 5865 5864 5863 5863 5862 5862 5862 5861 5861 5860 5860 5860 5860 5860 5859 5859 5859 5858 5858 5858
5884 5883 5882 5881 5880 5879 5878 5877 5877 5876 5875 5874 5873 5871 5870 5869 5868 5867 5866 5866 5865 5864 5864 5863 5861 5860 5860 5859 5859 5858 5858 5857 5856 5856 5856 5856 5855 5855 5855 5854 5854 5853 5853
5884 5883 5882 5880 5879 5878 5877 5876 5875 5874 5873 5872 5871 5870 5868 5867 5866 5865 5864 5863 5862 5862 5861 5860 5858 5857 5856 5856 5855 5855 5854 5853 5852 5852 5852 5851 5851 5850 5850 5849 5849 5849 5848
5883 5882 5881 5879 5878 5877 5876 5874 5873 5872 5871 5870 5869 5868 5866 5865 5864 5863 5861 5860 5859 5858 5857 5856 5855 5854 5853 5852 5851 5850 5850 5849 5848 5847 5847 5846 5845 5845 5844 5844 5843 5843 5842
5882 5881 5879 5878 5876 5875 5874 5872 5871 5870 5869 5868 5866 5865 5864 5863 5861 5860 5858 5857 5855 5854 5853 5852 5851 5850 5849 5848 5847 5846 5845 5844 5844 5843 5842 5841 5840 5839 5839 5838 5838 5837 5836
5880 5879 5877 5876 5874 5873 5872 5870 5869 5867 5866 5865 5863 5862 5861 5859 5858 5857 5855 5853 5851 5850 5849 5848 5847 5846 5844 5843 5842 5841 5840 5839 5838 5837 5836 5835 5834 5834 5833 5832 5832 5831 5830
5877 5876 5875 5873 5872 5870 5869 5867 5866 5864 5863 5861 5860 5859 5857 5856 5854 5853 5851 5849 5848 5846 5845 5844 5843 5842 5840 5839 5838 5837 5836 5834 5833 5832 5831 5830 5829 5828 5827 5826 5825 5825 5824
5874 5873 5871 5870 5868 5867 5865 5864 5863 5861 5859 5858 5856 5855 5853 5852 5850 5849 5847 5845 5844 5842 5841 5839 5838 5837 5836 5834 5833 5832 5831 5829 5828 5827 5826 5824 5823 5823 5821 5820 5820 5819 5818
5871 5869 5867 5866 5865 5863 5862 5860 5858 5857 5855 5854 5852 5851 5849 5848 5846 5844 5843 5841 5839 5838 5836 5835 5833 5832 5831 5829 5828 5826 5825 5824 5822 5821 5820 5819 5818 5817 5816 5815 5814 5813 5811
5866 5865 5863 5862 5860 5859 5857 5856 5854 5853 5851 5850 5848 5846 5845 5843 5841 5840 5838 5836 5835 5833 5831 5830 5828 5827 5825 5824 5822 5821 5819 5818 5816 5815 5814 5812 5812 5810 5809 5808 5807 5806 5804
5862 5860 5859 5857 5856 5854 5852 5851 5849 5848 5846 5845 5843 5841 5840 5838 5836 5835 5833 5831 5829 5827 5826 5824 5823 5821 5819 5818 5816 5815 5813 5812 5810 5809 5807 5806 5805 5804 5803 5801 5800 5799 5797
5856 5855 5854 5852 5851 5849 5847 5846 5844 5843 5841 5839 5837 5836 5834 5832 5831 5829 5827 5826 5824 5822 5820 5818 5817 5815 5813 5811 5810 5808 5807 5805 5804 5802 5801 5799 5798 5797 5796 5794 5793 5791 5789
5850 5849 5847 5846 5845 5843 5841 5840 5838 5837 5836 5834 5832 5830 5828 5826 5824 5823 5821 5820 5818 5816 5814 5812 5810 5809 5807 5805 5803 5802 5800 5799 5797 5796 5794 5793 5791 5790 5789 5787 5785 5784 5782